DW5574 Widnes UK current weather conditions

sailwx.info

Wind from 134 at 1 knots gusting 6

Air temperature 16.7° C
Dewpoint 8.9° C

Last reported at 2019-Jun-20 17:08 UTC.
Time now 2019-Jun-20 17:57 UTC

Location: N 53°23' W 002°43'.
View on Google Maps.

See reports from other nearby stations

  
Tides and Currents Weather Stations Pressure Air Temp Water Temp Dewpoint Dewpoint Depression Visibility Wind Speed Wind Dir Waves Ship Positions
date/time (UTC)wind fromknots sea level pressurealtimeterstation pressurevisibilityair tempwater tempwave heightnotes
2019-Jun-20 17:08 134 1 gusting 6 16.7
2019-Jun-20 17:03 128 1 gusting 6 16.7
2019-Jun-20 16:58 316 1 gusting 4 16.7
2019-Jun-20 16:53 228 0 gusting 4 16.7
2019-Jun-20 16:48 084 0 gusting 3 16.1
2019-Jun-20 16:43 356 1 gusting 4 16.1
2019-Jun-20 16:38 134 1 gusting 5 16.1
2019-Jun-20 16:33 127 0 gusting 5 16.7
2019-Jun-20 16:28 060 0 gusting 4 16.7
2019-Jun-20 16:23 163 1 gusting 6 16.7
2019-Jun-20 16:18 353 1 gusting 6 17.2
2019-Jun-20 16:13 228 1 gusting 6 17.2
2019-Jun-20 16:08 127 1 gusting 7 17.8
2019-Jun-20 16:03 218 1 gusting 7 17.8
2019-Jun-20 15:58 169 2 gusting 9 17.8
2019-Jun-20 15:53 117 2 gusting 9 17.8
2019-Jun-20 15:48 056 1 gusting 6 17.8
2019-Jun-20 15:43 131 0 gusting 4 17.8
2019-Jun-20 15:38 127 1 gusting 4 17.8
2019-Jun-20 15:33 012 1 gusting 4 17.8
2019-Jun-20 15:28 323 1 gusting 5 17.8
2019-Jun-20 15:23 266 2 gusting 6 17.2
2019-Jun-20 15:18 011 1 gusting 6 17.2
2019-Jun-20 15:13 127 1 gusting 4 17.2
2019-Jun-20 15:08 068 1 gusting 5 17.2
2019-Jun-20 15:03 166 2 gusting 8 17.2
2019-Jun-20 14:58 084 2 gusting 8 17.2
2019-Jun-20 14:53 203 2 gusting 6 17.2
2019-Jun-20 14:48 065 2 gusting 8 17.2
2019-Jun-20 14:43 068 2 gusting 8 17.2
2019-Jun-20 14:38 297 2 gusting 6 17.2
2019-Jun-20 14:33 183 2 gusting 6 17.2
2019-Jun-20 14:28 103 2 gusting 7 17.2
2019-Jun-20 14:23 137 2 gusting 7 17.2
2019-Jun-20 14:18 077 2 gusting 7 17.2
2019-Jun-20 14:13 047 3 gusting 7 17.2
2019-Jun-20 14:08 039 2 gusting 7 17.2
2019-Jun-20 14:03 041 2 gusting 6 17.2
2019-Jun-20 13:58 107 3 gusting 8 17.2
2019-Jun-20 13:53 139 2 gusting 8 17.2
2019-Jun-20 13:48 357 2 gusting 6 17.2
2019-Jun-20 13:43 025 3 gusting 6 17.2
2019-Jun-20 13:38 098 2 gusting 6 17.8
2019-Jun-20 13:33 098 1 gusting 6 17.8
2019-Jun-20 13:28 019 1 gusting 4 17.8
2019-Jun-20 13:23 214 1 gusting 6 17.8
2019-Jun-20 13:18 338 2 gusting 6 17.2
2019-Jun-20 13:13 079 3 gusting 7 16.7
2019-Jun-20 13:08 159 2 gusting 7 16.7
2019-Jun-20 13:03 217 1 gusting 6 17.2
2019-Jun-20 12:57 143 1 gusting 6 16.7
2019-Jun-20 12:53 108 1 gusting 5 16.7
2019-Jun-20 12:47 092 2 gusting 8 16.7
2019-Jun-20 12:42 16.7
2019-Jun-20 12:37 190 1 gusting 6 16.7
2019-Jun-20 12:32 113 1 gusting 5 16.7
2019-Jun-20 12:27 139 2 gusting 6 16.7
2019-Jun-20 12:22 359 2 gusting 6 16.7
2019-Jun-20 12:17 090 1 gusting 6 17.2
2019-Jun-20 12:12 162 2 gusting 5 17.2
2019-Jun-20 12:07 051 1 gusting 5 17.2
2019-Jun-20 12:02 358 1 gusting 9 16.7
2019-Jun-20 11:57 354 2 gusting 9 16.7
2019-Jun-20 11:52 063 1 gusting 4 16.7
2019-Jun-20 11:47 338 1 gusting 4 16.7
2019-Jun-20 11:42 077 1 gusting 6 16.1
2019-Jun-20 11:37 054 2 gusting 6 16.1
2019-Jun-20 11:32 089 2 gusting 8 15.6
2019-Jun-20 11:27 056 2 gusting 8 15.6
2019-Jun-20 11:22 100 1 gusting 7 16.1
2019-Jun-20 11:17 106 1 gusting 5 16.1
2019-Jun-20 11:12 346 2 gusting 7 16.1
2019-Jun-20 11:07 078 2 gusting 7 16.1
2019-Jun-20 11:02 139 2 gusting 6 16.1
2019-Jun-20 10:57 301 1 gusting 6 16.1
2019-Jun-20 10:52 079 1 gusting 6 16.7
2019-Jun-20 10:47 134 1 gusting 6 16.7
2019-Jun-20 10:42 008 1 gusting 6 16.1
2019-Jun-20 10:37 094 1 gusting 6 15.6
2019-Jun-20 10:32 113 1 gusting 4 15.6
2019-Jun-20 10:27 200 1 gusting 7 15.0
2019-Jun-20 10:22 126 1 gusting 7 15.0
2019-Jun-20 10:17 086 1 gusting 6 15.0
2019-Jun-20 10:12 096 2 gusting 6 15.6
2019-Jun-20 10:07 102 2 gusting 5 15.6
2019-Jun-20 10:02 138 1 gusting 5 16.1
2019-Jun-20 09:57 113 0 gusting 5 16.1
2019-Jun-20 09:52 061 1 gusting 5 15.6
2019-Jun-20 09:47 338 1 gusting 5 15.6
2019-Jun-20 09:42 145 1 gusting 5 15.6
2019-Jun-20 09:37 336 1 gusting 5 15.6
2019-Jun-20 09:32 114 1 gusting 5 15.6
2019-Jun-20 09:27 041 1 gusting 3 15.0
2019-Jun-20 09:22 108 1 gusting 4 15.0
2019-Jun-20 09:17 073 1 gusting 6 15.0
2019-Jun-20 09:12 118 1 gusting 6 15.0
2019-Jun-20 09:07 212 1 gusting 5 15.0
2019-Jun-20 09:02 092 1 gusting 5 14.4
2019-Jun-20 08:57 087 1 gusting 5 14.4
2019-Jun-20 08:52 175 1 gusting 6 14.4
2019-Jun-20 08:47 086 1 gusting 6 14.4
2019-Jun-20 08:42 250 1 gusting 4 14.4
2019-Jun-20 08:37 131 1 gusting 5 14.4
2019-Jun-20 08:32 129 1 gusting 5 14.4
2019-Jun-20 08:27 166 0 gusting 3 14.4
2019-Jun-20 08:22 078 1 gusting 6 13.9
2019-Jun-20 08:17 066 1 gusting 6 13.9
2019-Jun-20 08:12 126 1 gusting 4 13.9
2019-Jun-20 08:07 054 1 gusting 4 13.9
2019-Jun-20 08:02 120 1 gusting 5 13.3
2019-Jun-20 07:57 133 1 gusting 5 13.3
2019-Jun-20 07:52 115 0 gusting 5 13.3
2019-Jun-20 07:47 099 1 gusting 6 13.3
2019-Jun-20 07:42 314 1 gusting 6 13.3
2019-Jun-20 07:37 031 0 gusting 4 13.3
2019-Jun-20 07:32 259 0 gusting 6 13.3
2019-Jun-20 07:27 267 1 gusting 6 13.3
2019-Jun-20 07:22 115 1 gusting 6 13.3
2019-Jun-20 07:17 025 0 gusting 5 13.3
2019-Jun-20 07:12 250 1 gusting 8 13.3
2019-Jun-20 07:07 110 1 gusting 8 13.3
2019-Jun-20 07:02 092 0 gusting 5 13.9
2019-Jun-20 06:57 256 0 gusting 6 13.9
2019-Jun-20 06:52 117 0 gusting 6 13.3
2019-Jun-20 06:47 118 0 gusting 5 12.8
2019-Jun-20 06:42 112 0 gusting 5 12.8
2019-Jun-20 06:37 332 0 gusting 3 12.8
2019-Jun-20 06:32 226 12.8
2019-Jun-20 06:27 263 12.8
2019-Jun-20 06:22 072 0 gusting 5 12.8
2019-Jun-20 06:17 110 0 gusting 5 12.8
2019-Jun-20 06:12 150 12.8
2019-Jun-20 06:07 086 0 gusting 6 12.8
2019-Jun-20 06:02 052 0 gusting 6 12.8
2019-Jun-20 05:57 201 1 gusting 6 12.8
2019-Jun-20 05:52 145 1 gusting 6 12.8
2019-Jun-20 05:47 245 0 gusting 4 12.8
2019-Jun-20 05:42 226 0 gusting 6 12.8
2019-Jun-20 05:37 226 0 gusting 6 12.8
2019-Jun-20 05:32 108 0 gusting 6 12.8
2019-Jun-20 05:27 162 0 gusting 3 12.8
2019-Jun-20 05:22 226 0 gusting 4 12.8
2019-Jun-20 05:17 217 0 gusting 5 12.8
2019-Jun-20 05:12 186 0 gusting 5 12.8
2019-Jun-20 05:07 195 12.2
2019-Jun-20 05:02 033 12.2
2019-Jun-20 04:57 267 12.2
2019-Jun-20 04:52 240 12.2
2019-Jun-20 04:47 248 12.2
2019-Jun-20 04:42 354 12.2
2019-Jun-20 04:37 274 12.2
2019-Jun-20 04:32 225 12.2
2019-Jun-20 04:27 273 12.2
2019-Jun-20 04:22 232 0 gusting 2 12.2
2019-Jun-20 04:17 242 0 gusting 3 12.2
2019-Jun-20 04:12 228 0 gusting 5 12.2
2019-Jun-20 04:07 246 0 gusting 5 12.2
2019-Jun-20 04:02 259 0 gusting 4 12.2
2019-Jun-20 03:57 224 0 gusting 3 12.2
2019-Jun-20 03:52 217 0 gusting 3 12.2
2019-Jun-20 03:47 219 1 gusting 6 12.2
2019-Jun-20 03:42 188 1 gusting 6 12.2
2019-Jun-20 03:37 229 1 gusting 6 12.2
2019-Jun-20 03:32 232 0 gusting 6 12.2
2019-Jun-20 03:27 240 0 gusting 4 12.2
2019-Jun-20 03:22 256 0 gusting 3 12.2
2019-Jun-20 03:17 232 0 gusting 4 12.2
2019-Jun-20 03:12 246 0 gusting 4 12.2
2019-Jun-20 03:07 245 0 gusting 4 12.2
2019-Jun-20 03:02 272 0 gusting 4 12.2
2019-Jun-20 02:57 173 1 gusting 5 12.2
2019-Jun-20 02:52 215 1 gusting 6 12.2
2019-Jun-20 02:47 210 1 gusting 6 12.2
2019-Jun-20 02:42 235 1 gusting 5 12.2
2019-Jun-20 02:37 232 1 gusting 5 12.2
2019-Jun-20 02:32 243 1 gusting 6 12.2
2019-Jun-20 02:27 247 1 gusting 6 12.2
2019-Jun-20 02:22 235 1 gusting 6 12.2
2019-Jun-20 02:17 243 1 gusting 4 12.2
2019-Jun-20 02:12 284 1 gusting 5 12.8
2019-Jun-20 02:07 304 2 gusting 5 12.8
2019-Jun-20 02:02 252 1 gusting 5 12.8
2019-Jun-20 01:57 204 1 gusting 5 12.8
2019-Jun-20 01:52 243 0 gusting 5 12.8
2019-Jun-20 01:47 233 12.8
2019-Jun-20 01:42 235 0 gusting 4 12.8
2019-Jun-20 01:37 249 0 gusting 4 12.8
2019-Jun-20 01:32 226 0 gusting 5 12.8
2019-Jun-20 01:27 253 0 gusting 5 12.8
2019-Jun-20 01:22 203 0 gusting 5 12.8
2019-Jun-20 01:17 279 0 gusting 5 12.8
2019-Jun-20 01:12 262 1 gusting 4 12.8
2019-Jun-20 01:07 269 1 gusting 5 12.8
2019-Jun-20 01:02 240 1 gusting 6 12.8
2019-Jun-20 00:57 247 0 gusting 6 12.8
2019-Jun-20 00:52 249 0 gusting 3 12.8
2019-Jun-20 00:47 252 0 gusting 4 12.8
2019-Jun-20 00:42 245 0 gusting 4 12.8
2019-Jun-20 00:37 274 0 gusting 4 12.8
2019-Jun-20 00:32 219 12.8
2019-Jun-20 00:27 255 12.2
2019-Jun-20 00:22 140 12.8
2019-Jun-20 00:17 115 12.8
2019-Jun-20 00:12 266 12.8
2019-Jun-20 00:07 262 12.8
2019-Jun-20 00:02 190 0 gusting 4 12.8
2019-Jun-19 23:57 232 1 gusting 6 12.8
2019-Jun-19 23:52 229 2 gusting 6 12.8
2019-Jun-19 23:47 248 2 gusting 6 12.8
2019-Jun-19 23:42 235 1 gusting 6 12.8
2019-Jun-19 23:37 207 1 gusting 5 12.8
2019-Jun-19 23:32 250 1 gusting 3 13.3
2019-Jun-19 23:27 287 1 gusting 5 13.3
2019-Jun-19 23:22 226 2 gusting 5 13.3
2019-Jun-19 23:17 248 1 gusting 6 13.3
2019-Jun-19 23:12 249 2 gusting 6 13.3
2019-Jun-19 23:07 232 1 gusting 4 13.3
2019-Jun-19 23:02 229 1 gusting 4 13.3
2019-Jun-19 22:57 208 0 gusting 3 13.3
2019-Jun-19 22:52 249 0 gusting 3 13.3
2019-Jun-19 22:47 226 0 gusting 4 13.3
2019-Jun-19 22:42 218 13.3
2019-Jun-19 22:37 188 13.3
2019-Jun-19 22:32 201 0 gusting 2 13.3
2019-Jun-19 22:27 229 13.3
2019-Jun-19 22:22 219 13.3
2019-Jun-19 22:17 263 13.3
2019-Jun-19 22:12 226 13.3
2019-Jun-19 22:07 249 13.3
2019-Jun-19 22:02 219 13.3
2019-Jun-19 21:57 235 13.3
2019-Jun-19 21:52 249 13.3
2019-Jun-19 21:47 239 0 gusting 3 13.3
2019-Jun-19 21:42 232 13.3
2019-Jun-19 21:37 224 13.3
2019-Jun-19 21:32 205 13.3
2019-Jun-19 21:27 228 13.9
2019-Jun-19 21:22 228 13.9
2019-Jun-19 21:16 246 13.9
2019-Jun-19 21:12 287 14.4
2019-Jun-19 21:06 072 14.4
2019-Jun-19 21:01 156 14.4
2019-Jun-19 20:56 243 14.4
2019-Jun-19 20:51 334 15.0
2019-Jun-19 20:46 316 15.0
2019-Jun-19 20:41 267 15.0
2019-Jun-19 20:36 267 15.0
2019-Jun-19 20:31 267 15.6
2019-Jun-19 20:26 278 15.6
2019-Jun-19 20:21 283 15.6
2019-Jun-19 20:16 259 15.6
2019-Jun-19 20:11 287 15.6
2019-Jun-19 20:06 231 16.1
2019-Jun-19 20:01 242 0 gusting 1 16.1
2019-Jun-19 19:56 142 0 gusting 2 16.1
2019-Jun-19 19:51 022 16.1
2019-Jun-19 19:46 291 16.7
2019-Jun-19 19:41 111 16.7
2019-Jun-19 19:36 141 16.7
2019-Jun-19 19:31 107 16.7
2019-Jun-19 19:26 114 16.7
2019-Jun-19 19:21 149 16.7
2019-Jun-19 19:16 071 16.7
2019-Jun-19 19:11 347 17.2
2019-Jun-19 19:06 152 17.2
2019-Jun-19 19:01 125 17.2
2019-Jun-19 18:56 201 0 gusting 3 17.2
2019-Jun-19 18:51 308 0 gusting 3 17.2
2019-Jun-19 18:46 095 0 gusting 3 17.8
2019-Jun-19 18:41 267 17.8
2019-Jun-19 18:36 173 0 gusting 2 17.8
2019-Jun-19 18:31 101 0 gusting 2 18.3
2019-Jun-19 18:26 096 0 gusting 2 18.3
2019-Jun-19 18:21 123 0 gusting 4 17.8
2019-Jun-19 18:16 037 0 gusting 4 17.8
2019-Jun-19 18:11 072 0 gusting 3 17.8
2019-Jun-19 18:06 137 0 gusting 4 17.8
2019-Jun-19 18:01 113 0 gusting 4 17.8
2019-Jun-19 17:56 080 0 gusting 3 17.8
2019-Jun-19 17:51 294 0 gusting 3 17.8
2019-Jun-19 17:46 150 0 gusting 3 17.8
2019-Jun-19 17:41 184 0 gusting 2 17.8
2019-Jun-19 17:36 040 0 gusting 2 17.8
2019-Jun-19 17:31 311 18.3
2019-Jun-19 17:26 084 0 gusting 5 18.3
2019-Jun-19 17:21 342 0 gusting 5 18.3
2019-Jun-19 17:16 293 0 gusting 4 18.3
2019-Jun-19 17:11 115 0 gusting 3 18.3
2019-Jun-19 17:06 106 0 gusting 3 18.3
2019-Jun-19 17:01 285 1 gusting 5 18.3
2019-Jun-19 16:56 304 1 gusting 5 18.3
2019-Jun-19 16:51 097 0 gusting 4 18.3
2019-Jun-19 16:46 116 0 gusting 4 18.3
2019-Jun-19 16:41 011 0 gusting 5 18.3
2019-Jun-19 16:36 099 0 gusting 5 18.3
2019-Jun-19 16:31 278 0 gusting 3 18.3
2019-Jun-19 16:26 056 1 gusting 5 18.3
2019-Jun-19 16:21 326 1 gusting 5 18.3
2019-Jun-19 16:16 047 0 gusting 4 18.3
2019-Jun-19 16:11 063 1 gusting 4 18.3
2019-Jun-19 16:06 323 1 gusting 4 18.9
2019-Jun-19 16:01 165 1 gusting 4 19.4
2019-Jun-19 15:56 106 1 gusting 7 19.4
2019-Jun-19 15:51 067 1 gusting 7 18.9
2019-Jun-19 15:46 135 1 gusting 6 18.9
2019-Jun-19 15:41 064 1 gusting 4 18.9
2019-Jun-19 15:36 115 0 gusting 4 18.9
2019-Jun-19 15:31 102 0 gusting 3 18.9
2019-Jun-19 15:26 057 1 gusting 4 18.9
2019-Jun-19 15:21 250 1 gusting 4 18.9
2019-Jun-19 15:16 034 1 gusting 5 18.9
2019-Jun-19 15:11 294 1 gusting 5 18.9
2019-Jun-19 15:06 101 1 gusting 4 19.4
2019-Jun-19 15:01 131 1 gusting 4 18.9
2019-Jun-19 14:56 004 1 gusting 4 18.9
2019-Jun-19 14:51 346 1 gusting 5 18.3
2019-Jun-19 14:46 274 0 gusting 5 18.3
2019-Jun-19 14:41 223 1 gusting 4 18.3
2019-Jun-19 14:36 093 1 gusting 4 18.3
2019-Jun-19 14:31 101 1 gusting 5 18.3
2019-Jun-19 14:26 056 1 gusting 5 18.3
2019-Jun-19 14:21 082 1 gusting 3 18.3
2019-Jun-19 14:16 063 0 gusting 3 18.3
2019-Jun-19 14:11 115 1 gusting 3 18.3
2019-Jun-19 14:06 125 1 gusting 3 18.9
2019-Jun-19 14:01 074 0 gusting 4 18.9
2019-Jun-19 13:56 195 0 gusting 4 18.9
2019-Jun-19 13:51 117 1 gusting 3 19.4
2019-Jun-19 13:46 078 0 gusting 3 19.4
2019-Jun-19 13:41 142 0 gusting 5 19.4
2019-Jun-19 13:36 140 0 gusting 8 19.4
2019-Jun-19 13:31 122 0 gusting 8 19.4
2019-Jun-19 13:26 218 0 gusting 2 19.4
2019-Jun-19 13:21 248 0 gusting 2 19.4
2019-Jun-19 13:16 122 0 gusting 5 19.4
2019-Jun-19 13:11 323 0 gusting 5 19.4
2019-Jun-19 13:06 102 0 gusting 4 19.4
2019-Jun-19 13:01 108 0 gusting 4 20.0
2019-Jun-19 12:56 095 1 gusting 8 20.0
2019-Jun-19 12:51 212 1 gusting 8 19.4
2019-Jun-19 12:46 162 0 gusting 2 20.0
2019-Jun-19 12:41 242 0 gusting 3 20.0
2019-Jun-19 12:36 086 0 gusting 3 20.0
2019-Jun-19 12:31 346 0 gusting 4 20.0
2019-Jun-19 12:26 337 0 gusting 4 19.4
2019-Jun-19 12:21 311 0 gusting 3 19.4
2019-Jun-19 12:16 101 0 gusting 3 20.0
2019-Jun-19 12:11 173 0 gusting 2 19.4
2019-Jun-19 12:06 302 0 gusting 5 19.4
2019-Jun-19 12:01 153 0 gusting 5 19.4
2019-Jun-19 11:56 065 1 gusting 5 18.9
2019-Jun-19 11:51 307 1 gusting 5 18.9
2019-Jun-19 11:46 063 0 gusting 4 19.4
2019-Jun-19 11:41 315 0 gusting 6 19.4
2019-Jun-19 11:36 126 0 gusting 6 19.4
2019-Jun-19 11:31 056 0 gusting 4 18.9
2019-Jun-19 11:26 172 0 gusting 4 18.9
2019-Jun-19 11:21 247 0 gusting 3 18.9
2019-Jun-19 11:16 118 0 gusting 3 18.9
2019-Jun-19 11:11 203 0 gusting 3 18.9
2019-Jun-19 11:05 053 0 gusting 3 18.9
2019-Jun-19 11:01 259 0 gusting 3 18.9
2019-Jun-19 10:56 124 0 gusting 3 18.9
2019-Jun-19 10:51 239 0 gusting 3 18.3
2019-Jun-19 10:46 308 0 gusting 3 18.3
2019-Jun-19 10:40 280 0 gusting 3 18.9
2019-Jun-19 10:35 081 0 gusting 3 18.3
2019-Jun-19 10:30 082 0 gusting 4 18.3
2019-Jun-19 10:25 148 0 gusting 4 17.8
2019-Jun-19 10:20 019 0 gusting 4 17.8
2019-Jun-19 10:15 334 0 gusting 4 17.8
2019-Jun-19 10:11 339 0 gusting 3 17.8
2019-Jun-19 10:05 044 0 gusting 3 17.8
2019-Jun-19 10:00 283 17.8
2019-Jun-19 09:55 074 17.8
2019-Jun-19 09:50 081 17.2
2019-Jun-19 09:45 194 0 gusting 3 16.7
2019-Jun-19 09:40 169 16.7
2019-Jun-19 09:35 123 16.7
2019-Jun-19 09:30 212 16.1
2019-Jun-19 09:25 123 16.1
2019-Jun-19 09:20 302 0 gusting 3 15.6
2019-Jun-19 09:15 039 0 gusting 3 15.6
2019-Jun-19 09:10 315 15.6
2019-Jun-19 09:05 347 15.6
2019-Jun-19 09:00 330 15.6
2019-Jun-19 08:55 318 15.6
2019-Jun-19 08:50 120 15.6
2019-Jun-19 08:45 123 15.6
2019-Jun-19 08:40 084 15.6
2019-Jun-19 08:35 047 15.6
2019-Jun-19 08:30 046 15.0
2019-Jun-19 08:25 100 15.0
2019-Jun-19 08:20 015 14.4
2019-Jun-19 08:15 309 14.4
2019-Jun-19 08:10 020 14.4
2019-Jun-19 08:05 252 14.4
2019-Jun-19 08:00 274 14.4
2019-Jun-19 07:55 128 14.4
2019-Jun-19 07:50 260 13.9
2019-Jun-19 07:45 277 13.9
2019-Jun-19 07:40 307 13.9
2019-Jun-19 07:35 347 13.9
2019-Jun-19 07:30 318 13.9
2019-Jun-19 07:25 304 13.9
2019-Jun-19 07:20 307 13.9
2019-Jun-19 07:15 327 13.9
2019-Jun-19 07:10 262 13.9
2019-Jun-19 07:05 290 13.9
2019-Jun-19 07:00 331 13.3
2019-Jun-19 06:55 342 12.8
2019-Jun-19 06:50 034 12.8
2019-Jun-19 06:45 354 12.8
2019-Jun-19 06:40 295 12.2
2019-Jun-19 06:35 240 12.2
2019-Jun-19 06:30 304 12.2
2019-Jun-19 06:25 300 12.2
2019-Jun-19 06:20 326 12.2
2019-Jun-19 06:15 305 12.2
2019-Jun-19 06:10 029 12.2
2019-Jun-19 06:05 262 12.2
2019-Jun-19 06:00 260 11.7
2019-Jun-19 05:55 238 11.7
2019-Jun-19 05:50 233 11.7
2019-Jun-19 05:45 238 11.7
2019-Jun-19 05:40 245 11.7
2019-Jun-19 05:35 277 11.7
2019-Jun-19 05:30 276 11.7
2019-Jun-19 05:25 290 11.7
2019-Jun-19 05:20 205 11.7
2019-Jun-19 05:15 205 11.7
2019-Jun-19 05:10 205 11.7
2019-Jun-19 05:05 207 11.7
2019-Jun-19 05:00 207 11.7
2019-Jun-19 04:55 154 11.7
2019-Jun-19 04:50 154 11.7
2019-Jun-19 04:45 154 11.7
2019-Jun-19 04:40 153 11.7
2019-Jun-19 04:35 215 11.7
2019-Jun-19 04:30 215 11.7
2019-Jun-19 04:25 186 11.7
2019-Jun-19 04:20 184 11.7
2019-Jun-19 04:15 186 11.7
2019-Jun-19 04:10 186 11.7
2019-Jun-19 04:05 175 11.7
2019-Jun-19 04:00 136 11.7
2019-Jun-19 03:55 167 11.7
2019-Jun-19 03:50 166 11.7
2019-Jun-19 03:45 167 11.7
2019-Jun-19 03:40 130 11.7
2019-Jun-19 03:35 248 11.7
2019-Jun-19 03:30 247 11.7
2019-Jun-19 03:25 248 11.7
2019-Jun-19 03:20 248 11.7
2019-Jun-19 03:15 247 11.7
2019-Jun-19 03:10 248 11.7
2019-Jun-19 03:05 248 11.7
2019-Jun-19 03:00 304 11.7
2019-Jun-19 02:55 278 11.7
2019-Jun-19 02:50 315 11.7
2019-Jun-19 02:45 004 11.7
2019-Jun-19 02:40 332 11.7
2019-Jun-19 02:35 321 11.7
2019-Jun-19 02:30 044 11.7
2019-Jun-19 02:25 044 11.7
2019-Jun-19 02:20 044 11.7
2019-Jun-19 02:15 025 12.2
2019-Jun-19 02:10 004 12.2
2019-Jun-19 02:05 304 12.2
2019-Jun-19 02:00 300 12.2
2019-Jun-19 01:55 287 12.2
2019-Jun-19 01:50 281 12.2
2019-Jun-19 01:45 341 12.2
2019-Jun-19 01:40 032 12.2
2019-Jun-19 01:35 336 12.2
2019-Jun-19 01:30 059 12.2
2019-Jun-19 01:25 049 12.2
2019-Jun-19 01:20 049 12.2
2019-Jun-19 01:15 056 12.2
2019-Jun-19 01:10 309 12.2
2019-Jun-19 01:05 032 12.2
2019-Jun-19 01:00 033 12.2
2019-Jun-19 00:55 033 12.2
2019-Jun-19 00:50 302 12.2
2019-Jun-19 00:45 302 12.2
2019-Jun-19 00:40 307 12.2
2019-Jun-19 00:35 345 12.2
2019-Jun-19 00:30 265 12.2
2019-Jun-19 00:25 263 12.2
2019-Jun-19 00:20 264 12.2
2019-Jun-19 00:15 257 12.2
2019-Jun-19 00:10 276 12.2
2019-Jun-19 00:05 295 12.2
2019-Jun-19 00:00 262 12.2
2019-Jun-18 23:55 277 12.2
2019-Jun-18 23:50 315 12.2
2019-Jun-18 23:45 264 12.2
2019-Jun-18 23:40 293 12.8
2019-Jun-18 23:35 313 12.8
2019-Jun-18 23:30 285 12.8
2019-Jun-18 23:25 318 12.8
2019-Jun-18 23:20 267 12.8
2019-Jun-18 23:15 302 12.8
2019-Jun-18 23:10 304 12.8
2019-Jun-18 23:05 272 12.8
2019-Jun-18 23:00 318 12.8
2019-Jun-18 22:55 299 12.8
2019-Jun-18 22:50 267 12.8
2019-Jun-18 22:45 351 0 gusting 2 12.8
2019-Jun-18 22:40 315 0 gusting 2 12.8
2019-Jun-18 22:35 341 0 gusting 2 12.8
2019-Jun-18 22:30 188 0 gusting 2 12.8
2019-Jun-18 22:25 020 12.8
2019-Jun-18 22:20 304 13.3
2019-Jun-18 22:15 193 13.3
2019-Jun-18 22:10 126 13.3
2019-Jun-18 22:05 019 13.3
2019-Jun-18 22:00 150 13.3
2019-Jun-18 21:55 041 13.3
2019-Jun-18 21:50 278 13.3
2019-Jun-18 21:45 233 13.3
2019-Jun-18 21:40 153 13.3
2019-Jun-18 21:10 224 13.9
2019-Jun-18 21:05 225 13.9
2019-Jun-18 21:00 239 13.9
2019-Jun-18 20:55 219 13.9
2019-Jun-18 20:50 280 14.4
2019-Jun-18 20:45 245 14.4
2019-Jun-18 20:40 240 14.4
2019-Jun-18 20:35 146 0 gusting 2 14.4
2019-Jun-18 20:30 132 15.0
2019-Jun-18 20:25 142 15.0
2019-Jun-18 20:20 248 0 gusting 2 15.0
2019-Jun-18 20:15 318 15.0
2019-Jun-18 20:10 323 15.0
2019-Jun-18 20:05 297 0 gusting 3 15.6
2019-Jun-18 20:00 313 0 gusting 3 15.6
2019-Jun-18 19:55 304 0 gusting 2 15.6
2019-Jun-18 19:50 027 0 gusting 3 16.1
2019-Jun-18 19:45 353 1 gusting 4 16.1
2019-Jun-18 19:40 300 1 gusting 4 16.1
2019-Jun-18 19:35 336 1 gusting 3 16.1
2019-Jun-18 19:30 304 1 gusting 6 16.1
2019-Jun-18 19:25 328 1 gusting 6 16.7
2019-Jun-18 19:20 336 1 gusting 5 16.7
2019-Jun-18 19:15 256 0 gusting 5 16.7
2019-Jun-18 19:10 322 1 gusting 4 17.2
2019-Jun-18 19:05 318 0 gusting 4 17.2
2019-Jun-18 18:55 343 17.8
2019-Jun-18 18:50 026 17.8
2019-Jun-18 18:45 054 0 gusting 1 17.8
2019-Jun-18 18:40 051 0 gusting 2 17.8
2019-Jun-18 18:35 061 0 gusting 2 17.8
2019-Jun-18 18:30 027 0 gusting 1 18.3
2019-Jun-18 18:25 058 18.3
2019-Jun-18 18:20 110 18.3
2019-Jun-18 18:15 115 0 gusting 2 18.3
2019-Jun-18 18:10 071 0 gusting 2 18.3
2019-Jun-18 18:05 039 0 gusting 1 18.3
2019-Jun-18 18:00 043 0 gusting 2 18.3
2019-Jun-18 17:55 047 0 gusting 2 18.3
2019-Jun-18 17:50 088 0 gusting 2 18.3
2019-Jun-18 17:45 078 0 gusting 2 18.3
2019-Jun-18 17:40 347 18.3
2019-Jun-18 17:35 043 18.3
2019-Jun-18 17:30 025 0 gusting 1 18.3
2019-Jun-18 17:25 075 18.3
2019-Jun-18 17:19 119 0 gusting 3 18.3
2019-Jun-18 17:15 019 0 gusting 4 18.3
2019-Jun-18 17:10 026 0 gusting 4 18.3
2019-Jun-18 17:05 018 0 gusting 2 18.3
2019-Jun-18 17:00 107 0 gusting 2 18.3